Weather History for Cortez, CO

Change the Weather History Date:

Friday, January 17, 2014

  Actual Average Record
Temperature  
Mean Temperature 32 °F 28 °F  
Max Temperature 50 °F 41 °F 50 °F (2000)
Min Temperature 13 °F 15 °F -9 °F (2008)
Degree Days  
Heating Degree Days 33 37  
Month to date heating degree days 613 638  
Since 1 July heating degree days 3292 3296  
Cooling Degree Days 0 0  
Month to date cooling degree days 0 0  
Year to date cooling degree days 0 0  
Moisture  
Dew Point 10 °F    
Average Humidity 47    
Maximum Humidity 73    
Minimum Humidity 20    
Precipitation  
Precipitation 0.00 in 0.02 in 0.01 in (2000)
Month to date precipitation T 0.55  
Year to date precipitation T 0.55  
Sea Level Pressure  
Sea Level Pressure 30.30 in    
Wind  
Wind Speed 9 mph (NE)    
Max Wind Speed 23 mph    
Max Gust Speed 28 mph    
Visibility 10 miles    
Events      
T = Trace of Precipitation, MM = Missing Value Source: NWS Daily Summary

Daily Weather History Graph

Daily Weather History Graph

Search for Another Location

Airport:

Trip Planner

Search our weather history database for the weather conditions in past years. The results will help you decide how hot, cold, wet, or windy it might be!

Date:

Astronomy

Jan. 17, 2014 Rise Set
Actual Time 7:26 AM MST 5:22 PM MST
Civil Twilight 6:58 AM MST 5:51 PM MST
Nautical Twilight 6:26 AM MST 6:23 PM MST
Astronomical Twilight 5:55 AM MST 6:54 PM MST
Moon 7:08 PM MST (1/17) 7:59 AM MST (1/17)
Length of Visible Light 10h 52m
Length of Day
9h 56m
Full, 98% of the Moon is Illuminated
Jan 17
Full
Jan 23
Last Quarter
Jan 30
New
Feb 6
First Quarter
Feb 14
Full

Hourly Weather History & Observations

Time (MST) Temp. Windchill Dew Point Humidity Pressure Visibility Wind Dir Wind Speed Gust Speed Precip Events Conditions
12:53 AM 19.0 °F 8.2 °F 8.1 °F 62% 30.30 in 10.0 mi East 9.2 mph - N/A   Clear
1:53 AM 18.0 °F 6.9 °F 8.1 °F 65% 30.29 in 10.0 mi East 9.2 mph - N/A   Clear
2:53 AM 17.1 °F 6.6 °F 8.1 °F 68% 30.30 in 10.0 mi ENE 8.1 mph - N/A   Clear
3:53 AM 16.0 °F 4.4 °F 8.1 °F 71% 30.31 in 10.0 mi ENE 9.2 mph - N/A   Clear
4:53 AM 16.0 °F 5.3 °F 8.1 °F 71% 30.31 in 10.0 mi NE 8.1 mph - N/A   Clear
5:53 AM 15.1 °F 7.7 °F 8.1 °F 74% 30.36 in 10.0 mi ENE 4.6 mph - N/A   Clear
6:53 AM 14.0 °F - 7.0 °F 74% 30.44 in 10.0 mi Calm Calm - N/A   Clear
7:53 AM 14.0 °F 6.5 °F 7.0 °F 74% 30.43 in 10.0 mi ENE 4.6 mph - N/A   Clear
8:53 AM 27.0 °F 21.6 °F 12.9 °F 56% 30.40 in 10.0 mi NE 4.6 mph - N/A   Clear
9:53 AM 37.0 °F - 14.0 °F 39% 30.36 in 10.0 mi Calm Calm - N/A   Clear
10:53 AM 43.0 °F - 12.0 °F 28% 30.34 in 10.0 mi Calm Calm - N/A   Clear
11:53 AM 50.0 °F - 12.0 °F 22% 30.27 in 10.0 mi WNW 15.0 mph 20.7 mph N/A   Clear
12:53 PM 50.0 °F - 12.9 °F 23% 30.23 in 10.0 mi WNW 19.6 mph 25.3 mph N/A   Clear
1:53 PM 48.9 °F - 12.0 °F 23% 30.22 in 10.0 mi West 16.1 mph 25.3 mph N/A   Clear
2:53 PM 50.0 °F - 10.9 °F 21% 30.22 in 10.0 mi North - - N/A   Clear
3:53 PM 48.9 °F - 10.9 °F 22% 30.22 in 10.0 mi West 19.6 mph - N/A   Clear
4:53 PM 46.0 °F 40.2 °F 10.9 °F 24% 30.25 in 10.0 mi WNW 12.7 mph - N/A   Clear
5:53 PM 39.9 °F 36.7 °F 10.0 °F 29% 30.27 in 10.0 mi NW 4.6 mph - N/A   Clear
6:53 PM 27.0 °F 18.7 °F 8.1 °F 45% 30.33 in 10.0 mi ENE 8.1 mph - N/A   Clear
7:53 PM 25.0 °F 17.1 °F 9.0 °F 51% 30.34 in 10.0 mi ENE 6.9 mph - N/A   Clear
8:53 PM 21.0 °F 11.4 °F 8.1 °F 57% 30.31 in 10.0 mi ENE 8.1 mph - N/A   Clear
9:53 PM 21.9 °F 13.4 °F 9.0 °F 58% 30.27 in 10.0 mi ENE 6.9 mph - N/A   Clear
10:53 PM 21.9 °F 10.4 °F 10.9 °F 63% 30.25 in 10.0 mi ENE 11.5 mph - N/A   Clear
11:53 PM 18.0 °F 6.9 °F 9.0 °F 68% 30.24 in 10.0 mi ENE 9.2 mph - N/A   Clear